Theta_e
283 284 284 284 282 281 280 280 279 277 277 277 275 276 278 278 274 273 279 279 276 278 279 280 281 281 280 278 276 277 277 276 276 275 275 275 275 275 275 275 275 275 275 275 275 274 274 273 273 272 272 271 271 271 270 270 270 270 269 269 268 268 268 268 268 269 269 270 270 270 270 269 269 269 269 269 269 269 269 269 270 270 270 271 271 271 272
281 282 282 282 281 281 281 280 279 279 278 277 277 277 278 277 276 278 278 278 277 280 281 282 282 280 278 276 276 277 276 276 276 275 275 275 275 275 274 274 275 275 275 275 274 274 273 272 271 271 271 270 270 269 269 269 269 269 268 267 267 267 267 267 268 269 269 269 269 269 269 269 268 268 268 268 268 268 269 269 270 270 270 270 270 270 270
279 281 282 281 280 279 277 279 280 279 279 278 278 277 277 277 276 277 277 276 276 281 283 282 283 279 277 276 276 276 276 276 275 275 275 275 275 275 274 274 274 274 274 274 273 273 272 271 270 270 270 269 269 269 268 268 267 267 267 266 266 266 266 267 268 268 268 268 268 268 268 268 268 267 267 267 267 268 268 268 268 269 269 269 270 271 271
277 280 279 279 279 278 277 276 277 277 277 275 277 275 277 276 274 276 275 273 274 280 281 279 278 278 278 276 276 275 275 275 275 275 275 275 274 273 274 274 274 274 273 273 273 272 271 270 270 269 269 268 268 267 267 267 266 266 266 265 265 266 266 267 267 267 268 268 268 267 267 266 266 266 266 266 266 267 267 267 268 268 268 269 269 269 270
276 276 277 275 275 275 273 275 277 277 278 279 279 279 279 278 278 275 273 274 280 281 279 276 276 277 276 276 276 275 275 275 275 275 275 274 273 273 273 273 273 273 273 272 272 271 270 270 269 269 268 267 266 267 266 266 266 265 265 265 265 265 266 266 267 267 267 267 266 265 265 265 265 265 265 265 266 266 266 267 267 267 267 268 268 269 269
272 272 274 274 272 269 275 281 282 280 277 278 276 277 278 279 279 278 280 280 281 280 277 277 276 276 275 276 276 277 276 275 275 275 274 274 273 274 273 273 273 273 273 272 271 270 269 269 269 269 268 267 266 266 266 265 264 264 264 264 265 265 266 266 266 266 266 265 264 264 264 264 264 264 264 264 265 266 266 266 266 266 267 267 267 268 268
270 272 273 271 268 273 279 275 279 280 281 280 279 279 280 280 280 280 279 280 280 281 280 279 277 276 275 276 276 276 276 276 275 275 273 273 274 273 273 272 272 272 271 271 270 269 269 269 268 267 266 266 265 265 264 263 264 263 263 264 264 265 265 265 265 265 264 263 263 263 263 263 263 263 264 264 264 265 265 266 266 266 266 267 267 268 269
273 268 270 266 271 280 281 277 278 280 278 279 278 276 279 280 280 280 279 280 281 281 281 276 276 276 276 276 276 276 276 276 275 274 274 273 274 273 273 272 271 271 270 269 269 268 269 268 267 266 265 265 264 263 263 263 263 263 263 263 264 264 264 264 264 263 263 262 262 262 262 262 262 262 263 263 263 264 265 266 266 267 267 267 267 268 269
270 272 270 274 279 278 281 281 276 277 276 275 275 272 277 279 280 280 279 279 280 280 276 275 276 276 275 274 274 275 275 275 275 275 274 274 273 273 272 272 271 270 270 269 268 268 267 266 265 265 265 264 263 262 262 262 262 262 263 263 263 263 263 263 262 262 262 261 261 261 261 261 261 262 262 263 264 265 264 265 265 266 267 267 268 268 269
276 271 271 271 272 269 276 277 278 280 280 279 278 275 275 279 279 281 280 279 279 276 275 275 275 276 274 271 273 274 275 275 275 275 275 274 273 272 271 271 270 269 268 268 267 266 265 265 265 264 263 263 262 261 261 261 261 262 262 262 262 262 262 262 261 261 261 260 260 260 260 260 261 262 263 263 264 265 264 265 265 266 267 267 268 269 269
273 271 269 270 269 274 278 275 278 278 278 278 276 271 271 276 278 279 279 278 278 276 275 275 275 273 269 270 272 275 274 274 275 274 273 272 272 271 270 269 268 268 267 266 266 265 264 263 264 263 262 261 261 260 260 260 261 261 261 261 261 260 260 261 260 260 260 260 260 260 260 261 261 262 263 263 264 265 265 266 266 267 267 267 268 268 269
274 272 271 269 274 274 275 275 277 277 278 279 275 269 269 274 275 277 278 278 276 276 276 275 275 273 268 271 273 276 275 275 274 273 272 271 270 270 269 267 268 267 266 265 264 263 263 263 263 262 261 261 260 259 260 260 260 260 260 261 260 260 260 260 259 259 259 259 260 260 260 261 262 263 264 264 264 265 266 266 267 267 268 268 268 268 270
274 275 271 274 274 280 277 277 277 277 279 277 268 269 275 276 276 276 278 277 276 276 275 276 272 275 275 275 276 275 274 273 273 272 272 271 270 269 268 268 269 265 265 264 263 262 263 262 262 261 261 259 259 259 259 259 259 260 260 260 260 259 259 259 258 259 259 260 260 261 262 262 263 263 264 264 265 266 266 267 268 268 268 268 268 269 270
272 273 271 271 274 280 278 278 278 279 277 268 271 277 277 277 276 276 278 276 276 277 277 276 275 276 276 276 275 274 274 274 273 272 270 270 269 268 268 268 266 264 263 262 262 262 262 261 261 260 260 258 258 258 258 258 259 260 260 259 259 258 258 258 258 259 259 260 261 262 263 263 263 264 265 266 267 267 268 268 268 268 269 269 269 270 271
273 273 269 268 267 278 280 278 276 280 275 277 279 277 277 277 277 277 276 277 277 277 276 277 276 276 275 275 274 274 273 273 272 271 270 269 268 267 265 264 264 263 261 261 261 261 261 260 260 260 259 257 257 257 257 258 259 259 259 258 258 257 257 257 258 259 259 260 262 263 264 265 264 264 265 265 266 267 268 269 269 270 270 270 270 270 271
267 271 267 269 277 279 280 279 275 277 282 280 278 279 277 277 277 277 277 277 277 278 278 276 276 276 275 274 274 273 272 272 271 270 269 268 267 265 264 264 263 260 261 260 260 260 260 260 259 259 258 257 257 256 256 258 258 258 257 257 257 256 257 257 258 259 260 261 263 264 264 264 264 264 264 265 266 266 267 268 269 271 272 272 271 271 272
274 274 277 280 278 280 281 281 281 281 281 279 280 279 279 278 277 277 278 277 277 278 278 277 277 275 276 275 274 273 272 271 269 268 268 267 265 264 263 262 261 260 260 259 259 258 259 259 259 258 258 256 256 255 256 257 257 256 256 256 255 256 256 257 258 260 261 262 263 263 263 263 263 263 264 264 264 265 267 268 269 270 273 275 276 276 277
283 282 282 279 278 279 280 282 280 280 280 279 279 279 278 279 279 279 278 279 278 277 278 276 275 276 275 273 272 271 270 269 268 268 266 265 264 263 261 260 260 259 258 257 257 257 257 258 258 258 257 257 254 255 256 256 256 256 255 254 255 256 257 258 259 260 261 262 262 262 263 263 263 263 263 263 263 265 266 268 269 269 270 271 273 275 277
279 276 284 280 279 279 280 281 280 279 281 280 279 279 280 279 279 279 279 279 279 278 277 277 276 275 274 273 272 271 269 268 267 266 265 264 263 261 259 260 259 257 256 256 256 256 255 257 258 257 256 256 256 256 255 256 255 255 254 254 255 256 257 258 259 260 261 261 261 262 262 262 262 263 262 263 263 264 266 266 267 268 269 271 272 274 275
279 281 279 281 281 281 281 281 280 279 279 279 280 280 279 279 280 280 279 278 277 277 276 277 276 274 273 272 270 269 268 267 266 265 264 262 261 260 260 260 258 256 256 256 255 255 256 257 257 256 256 255 255 255 255 255 254 254 254 254 255 256 257 259 259 260 261 261 261 260 261 261 261 261 261 262 262 263 265 266 266 267 268 269 270 272 273
281 283 279 279 279 280 279 280 281 281 281 280 279 278 278 278 278 276 276 276 277 277 277 275 275 272 272 272 271 269 267 266 265 264 262 261 260 259 259 258 257 256 255 255 255 255 255 257 256 255 255 255 255 255 255 254 254 253 253 254 255 256 258 259 259 260 260 260 260 260 260 260 261 261 261 262 262 264 266 267 268 268 268 269 271 272 272
277 278 280 279 275 275 279 279 280 281 281 280 278 277 277 277 276 275 275 273 273 274 275 274 274 273 271 269 269 267 266 265 264 262 260 259 258 258 258 258 256 255 255 254 254 255 255 256 255 254 254 254 254 255 254 254 253 253 253 254 255 256 257 258 259 260 260 260 260 260 260 259 259 260 263 267 265 264 264 269 272 273 273 270 271 271 271
278 283 282 282 283 281 280 280 281 281 281 279 277 277 277 277 277 276 275 272 270 271 271 272 273 271 270 268 267 265 264 263 262 261 259 258 258 258 257 255 255 254 255 254 254 254 255 255 254 253 253 253 253 254 254 254 253 253 253 254 255 256 257 257 259 259 259 259 259 259 259 259 259 259 258 260 266 268 268 269 270 271 272 273 274 275 272
281 281 282 283 282 281 280 281 281 281 281 280 279 279 278 277 276 275 275 274 273 271 269 268 270 270 269 267 266 263 262 261 260 259 259 259 258 258 257 256 254 254 254 254 254 254 254 254 253 253 252 253 253 253 253 253 253 253 253 254 254 255 257 258 259 259 259 259 259 258 258 259 258 258 257 257 258 264 267 268 269 270 270 271 273 273 273
282 281 283 283 283 283 282 282 282 282 280 280 279 278 277 276 275 275 275 274 274 272 269 268 267 268 267 265 264 262 260 259 259 259 259 259 259 257 256 254 254 253 254 254 254 254 253 252 252 252 252 252 252 252 252 252 252 252 253 253 254 255 257 258 258 258 258 258 258 258 257 257 257 257 257 256 256 256 258 265 267 268 268 269 271 272 272
281 281 282 282 282 280 278 279 279 280 279 280 279 279 278 277 276 274 274 274 272 271 270 268 265 265 265 263 261 260 259 258 260 259 257 256 256 255 254 253 254 254 253 253 253 252 252 252 251 251 251 252 252 252 252 252 252 251 252 253 254 255 257 258 258 257 257 257 257 257 257 257 257 256 256 256 256 256 255 256 257 261 265 267 269 271 270
281 281 280 279 277 276 278 280 279 279 279 279 279 278 277 276 274 272 269 268 268 268 268 267 265 263 262 261 260 259 258 259 258 257 256 255 255 255 255 254 253 253 253 252 251 252 253 252 251 251 250 251 252 252 251 251 251 251 252 253 254 256 258 258 257 257 257 257 257 257 257 256 256 256 256 256 256 256 255 255 255 255 255 257 263 269 265
280 281 283 279 276 276 277 280 281 279 278 277 275 273 272 270 268 266 265 265 264 264 264 263 262 260 259 259 258 258 258 256 255 256 255 255 255 255 254 253 253 252 252 252 251 251 251 250 251 249 250 251 252 251 251 251 251 251 252 253 254 255 256 257 256 256 256 256 257 256 256 256 256 256 256 256 255 255 255 255 255 254 255 256 258 264 267
279 281 283 283 281 280 279 277 276 276 274 272 272 270 269 268 267 267 266 266 264 263 262 261 260 260 260 258 258 257 256 255 255 254 254 255 255 254 253 253 252 251 251 251 250 249 249 249 250 250 250 250 251 251 251 250 250 251 251 253 253 254 255 256 256 256 256 256 257 257 257 256 255 255 255 255 255 255 255 254 254 254 254 255 256 258 262
280 281 281 280 279 278 276 275 275 275 272 270 269 268 270 269 267 267 265 263 263 263 262 260 259 258 258 257 256 256 255 255 254 254 254 255 254 253 252 252 251 250 250 250 249 249 249 249 249 249 250 250 251 250 250 250 250 250 251 252 252 253 254 256 256 256 255 255 256 257 256 255 255 254 255 255 254 254 254 254 254 254 253 254 257 256 257
281 280 279 277 277 277 277 276 275 274 271 270 270 268 268 269 269 267 264 263 263 263 260 259 258 257 257 256 255 255 254 254 254 254 254 254 253 253 252 251 249 248 249 250 248 249 249 248 249 250 250 250 250 251 250 250 250 250 251 252 252 255 256 258 258 255 254 254 255 255 255 255 254 254 254 254 254 253 253 253 253 253 253 253 254 255 257
280 278 277 276 276 276 276 275 274 272 270 269 268 268 267 268 267 266 264 262 262 262 259 258 257 257 256 254 254 254 253 253 253 253 253 252 252 252 251 250 251 252 250 249 249 249 248 247 247 249 250 250 250 250 250 250 250 249 249 251 251 251 254 257 255 255 254 254 254 254 254 254 254 254 253 253 253 253 253 253 252 253 253 252 253 254 257
277 275 274 274 274 275 274 273 272 270 269 268 269 270 269 270 270 268 266 264 262 261 259 258 257 256 254 254 253 253 252 252 252 252 251 251 251 250 251 251 249 249 249 248 248 249 248 247 247 249 250 250 250 250 250 250 250 249 249 250 250 251 253 255 255 254 253 254 253 254 254 254 254 253 253 253 253 253 253 252 252 252 252 252 253 254 257
279 278 279 278 276 275 275 272 272 271 270 270 271 270 268 268 268 267 265 264 262 261 259 258 256 255 254 253 253 252 252 252 252 252 251 251 251 251 251 250 246 245 248 248 250 248 247 248 248 249 250 250 250 250 250 250 250 248 249 249 250 250 251 252 253 252 252 252 253 254 253 254 253 253 253 253 252 252 252 252 252 252 252 252 252 253 256
282 282 281 278 278 278 277 275 273 272 270 269 267 267 267 267 266 266 265 263 262 262 260 257 255 255 254 253 252 252 252 254 253 252 251 251 251 250 250 246 245 246 249 248 248 247 248 247 247 249 249 249 250 249 250 250 249 248 248 249 250 250 250 251 251 252 252 252 252 252 252 253 253 253 253 253 252 252 252 252 252 252 251 251 252 253 253
281 281 279 277 278 278 278 277 275 273 271 271 269 268 266 266 265 264 263 263 262 260 258 256 255 254 253 252 252 252 253 253 253 252 251 251 250 251 250 247 248 249 248 248 248 247 248 247 252 252 250 249 249 249 250 251 248 248 249 248 249 249 250 251 251 251 252 251 251 252 252 253 253 253 253 252 252 252 251 251 251 251 251 251 251 252 252
281 281 279 278 277 277 276 276 274 273 272 271 270 268 266 265 265 264 263 261 259 258 256 255 254 253 253 253 253 254 253 253 252 252 251 251 251 250 249 249 248 247 248 244 247 249 248 249 251 252 250 249 248 249 250 252 250 248 247 247 247 248 249 249 250 250 250 251 251 251 252 252 251 251 252 251 251 251 251 251 251 251 251 251 251 251 251
280 280 280 279 277 276 276 275 274 273 272 270 268 268 267 265 264 262 260 259 258 256 256 255 255 255 254 253 252 252 252 252 252 251 251 250 250 249 246 246 244 244 244 244 245 246 246 250 251 250 248 249 248 248 250 252 252 248 247 247 248 248 249 248 249 249 250 250 251 250 250 250 250 250 251 251 251 251 251 251 251 250 250 250 250 251 251
278 279 279 279 277 276 274 271 271 272 272 270 268 266 265 264 263 261 259 258 257 256 255 255 254 253 252 252 252 252 251 251 251 250 249 248 247 248 248 245 245 243 243 242 242 243 249 250 250 248 249 248 248 250 250 251 251 247 246 245 246 247 248 248 248 248 249 249 250 250 249 250 250 250 250 250 251 251 251 251 251 250 250 250 250 250 250
278 278 277 276 275 273 272 270 270 270 271 271 268 264 263 262 261 259 257 256 255 256 255 254 254 253 253 253 252 251 251 251 251 250 249 248 247 245 245 248 247 248 248 251 249 249 250 251 249 248 248 248 248 249 249 250 251 250 248 246 246 247 247 248 247 247 248 248 249 249 249 249 249 250 250 250 250 250 250 250 250 250 250 249 249 249 250
277 277 275 275 274 272 271 269 268 267 267 267 266 264 263 262 260 258 256 255 255 255 255 255 255 253 253 253 252 251 251 251 251 250 249 247 246 246 248 246 248 248 248 248 248 249 250 250 249 249 248 249 249 250 248 250 249 248 248 246 246 246 246 247 247 247 247 247 248 247 248 248 248 249 249 249 249 249 250 250 249 249 249 249 249 249 249
275 275 274 273 270 270 268 266 263 263 261 262 262 262 262 261 260 259 257 255 255 255 254 255 255 254 253 252 251 251 250 250 250 249 249 250 250 248 248 247 245 248 250 250 249 249 248 248 249 250 249 249 249 249 250 250 247 247 247 247 246 247 246 246 246 246 246 246 246 246 247 247 247 247 248 248 248 249 249 249 249 249 249 249 249 249 249
273 273 272 270 268 266 263 263 264 261 258 258 260 260 260 260 258 256 255 255 254 254 254 254 253 253 252 251 250 250 249 249 249 249 248 248 247 250 249 250 249 249 251 249 249 246 247 248 249 249 250 249 249 249 249 249 247 247 246 246 247 248 248 246 246 245 245 245 246 246 246 247 246 246 247 247 248 248 248 248 248 248 248 248 248 248 248
271 271 270 267 265 263 262 261 258 258 258 257 258 258 258 257 256 255 255 254 254 254 253 252 252 251 251 251 251 250 249 249 249 249 249 248 248 250 249 249 248 249 251 248 247 247 247 248 249 250 249 249 249 249 249 248 248 247 246 246 246 247 247 245 245 245 244 245 245 246 246 247 246 246 246 247 247 247 248 248 248 248 248 248 248 248 248
269 268 266 264 261 261 260 259 259 259 257 256 255 255 255 255 255 255 255 254 253 253 252 252 251 251 251 251 252 251 250 250 250 250 249 248 248 249 247 250 249 248 249 249 247 247 247 248 250 249 249 248 248 248 248 248 248 247 246 246 245 246 245 246 246 244 245 244 246 247 246 246 246 246 246 246 247 247 247 247 247 247 247 247 247 247 247
262 262 261 260 260 259 259 258 256 255 255 254 253 253 253 253 253 253 254 254 253 253 252 253 252 252 252 252 251 251 250 250 250 249 249 250 251 250 249 249 248 249 249 249 247 247 247 249 249 249 248 248 248 247 246 246 247 246 245 245 245 246 245 246 244 243 243 243 244 244 244 245 245 245 245 245 246 246 246 247 247 246 246 247 247 247 247
259 259 259 258 256 255 255 255 255 255 254 254 253 252 252 252 252 253 252 253 253 252 252 253 253 253 253 252 251 250 249 249 249 249 247 247 249 249 250 250 249 249 249 246 246 246 246 247 248 249 248 248 247 244 244 244 244 244 244 244 244 246 245 243 243 242 241 242 244 245 246 245 244 244 245 245 245 245 246 246 245 245 246 246 246 246 246
258 257 256 255 254 254 254 254 254 254 255 255 253 252 251 251 251 251 251 252 252 252 252 252 252 252 253 253 253 252 252 252 250 249 248 248 248 248 248 248 248 249 248 248 248 248 249 249 249 248 248 247 246 244 244 244 244 244 243 243 244 244 243 242 241 241 241 243 242 241 242 242 242 243 243 243 244 244 244 245 245 245 245 245 245 245 245
256 255 254 254 254 254 254 255 255 255 254 253 252 252 251 251 251 251 251 251 251 251 251 251 251 252 251 251 251 251 251 250 251 250 250 249 248 248 248 249 249 249 247 245 244 244 247 248 248 248 248 247 245 244 244 245 244 245 244 244 242 242 242 242 241 241 240 241 241 241 241 241 241 241 242 243 243 243 244 244 244 244 244 245 245 245 245
254 254 254 254 254 254 255 255 255 254 253 252 252 251 252 252 251 251 252 252 251 251 250 251 251 251 250 251 250 248 248 248 249 250 250 248 247 247 247 246 247 248 247 244 243 244 246 247 248 247 246 243 242 243 242 243 245 245 245 244 246 243 243 245 246 246 243 242 241 241 241 241 240 242 243 242 242 243 243 243 243 244 245 245 244 244 244
254 254 254 255 255 255 255 255 254 254 253 253 252 252 253 253 252 252 252 252 251 250 250 250 250 251 251 251 250 250 249 249 249 249 248 248 247 247 247 246 246 247 247 245 244 243 243 244 243 245 245 244 244 243 244 244 243 243 245 245 244 244 243 244 243 241 241 241 241 240 240 240 239 239 240 240 242 242 242 243 242 242 242 242 243 243 243
255 255 255 255 255 255 255 254 254 254 254 253 253 254 254 253 252 252 252 252 251 250 250 250 249 250 251 250 249 249 249 249 249 249 248 248 247 246 246 247 245 245 244 244 244 242 244 243 246 246 246 245 244 242 245 245 245 244 244 245 245 245 244 243 243 241 240 241 241 240 241 240 239 239 240 239 241 241 242 241 241 241 242 242 242 243 243
Wind_Speed
21 19 15 8 8 9 13 16 11 11 14 17 21 21 24 13 13 24 26 10 14 20 9 13 11 11 10 6 8 9 8 7 5 3 3 2 2 2 3 4 5 7 9 10 11 10 10 10 12 12 12 12 12 13 13 14 14 15 15 16 18 19 20 18 19 18 18 19 20 18 19 18 18 16 17 19 18 19 19 19 18 17 16 18 21 21 17
14 16 11 7 11 14 16 22 15 15 18 22 21 22 21 20 23 26 23 24 28 27 14 15 10 5 6 5 4 5 7 6 5 3 1 0 1 1 2 4 5 6 8 9 9 10 11 12 13 14 13 14 14 15 15 15 15 16 15 17 18 18 18 19 18 19 20 18 18 23 18 21 17 17 20 19 16 18 17 17 15 14 17 19 20 21 21
17 18 6 8 10 12 20 25 13 19 21 20 21 19 20 19 22 25 28 28 29 25 13 12 11 4 4 5 7 8 7 6 4 3 1 1 0 1 3 5 6 7 8 8 9 10 11 12 12 12 13 13 14 15 14 15 16 16 15 17 18 18 19 18 18 19 17 20 22 19 20 17 19 18 18 14 15 15 16 15 17 16 19 19 18 17 18
15 6 7 8 8 10 19 26 19 19 19 21 23 17 23 17 22 24 21 18 22 23 6 4 3 5 7 8 8 7 6 5 4 2 1 0 1 3 4 5 5 7 8 9 10 10 11 11 12 12 14 14 14 15 15 15 16 16 16 16 17 19 19 20 20 19 19 18 17 18 16 15 14 15 13 15 12 16 14 16 15 16 18 19 18 18 17
16 2 4 5 3 6 17 27 25 22 25 26 17 17 19 20 19 15 18 23 23 14 2 4 5 7 7 7 8 6 5 5 4 3 1 2 2 2 3 4 6 6 7 8 8 10 9 11 12 12 12 14 15 14 16 16 16 17 18 17 17 19 19 18 20 19 18 18 19 17 17 16 16 12 14 15 15 14 15 15 17 18 18 18 18 16 17
1 4 4 3 2 8 24 3 6 18 24 23 23 25 25 22 17 18 20 22 13 8 3 7 7 6 7 8 5 7 9 6 4 3 4 4 2 1 2 3 4 5 6 7 7 7 9 10 11 11 10 11 13 13 14 15 15 16 17 19 17 19 19 19 18 17 18 20 17 17 18 15 17 13 15 15 16 16 15 16 16 16 16 18 19 19 18
3 4 3 1 5 25 2 2 1 7 14 17 21 26 26 22 18 20 22 23 20 19 11 8 5 6 4 5 10 6 6 6 6 7 5 3 3 2 1 4 4 5 6 8 9 9 9 10 10 11 12 10 13 14 14 16 15 16 17 18 18 18 19 18 17 17 18 18 18 18 16 18 18 17 18 17 17 16 15 15 15 14 13 15 16 15 16
2 3 5 2 21 6 11 6 7 4 3 6 8 17 26 18 15 16 20 24 21 17 12 2 6 10 8 6 3 5 4 7 9 8 6 3 2 1 1 2 4 4 7 8 9 9 8 9 10 9 11 12 14 15 14 14 15 15 16 17 18 18 18 18 19 18 18 20 19 19 20 21 21 21 19 18 18 17 16 16 15 14 14 14 16 16 16
9 7 10 19 14 23 32 18 5 9 9 9 11 10 20 11 18 16 19 20 15 13 2 10 7 8 6 5 1 0 7 7 6 8 6 6 3 3 1 1 3 3 4 5 6 8 10 10 11 12 12 13 14 15 15 14 14 15 16 17 18 19 19 19 18 18 20 20 21 20 21 22 22 21 21 20 17 13 15 16 16 16 14 14 14 14 16
8 6 8 4 7 10 20 3 2 5 6 6 4 1 20 6 15 17 19 16 13 4 9 9 10 6 6 5 4 3 4 6 8 5 7 6 6 4 1 0 2 3 3 4 6 8 10 10 9 10 12 13 14 14 15 15 15 16 16 17 18 18 18 18 20 21 21 20 22 22 21 21 21 20 18 18 18 14 14 15 15 15 15 13 13 14 16
4 7 9 9 9 19 2 3 2 4 6 10 5 3 16 6 15 12 11 13 7 11 12 9 8 8 7 9 5 8 7 5 6 7 6 6 6 4 3 2 3 4 5 7 8 9 8 11 10 11 12 12 13 14 14 15 15 16 16 18 19 20 21 20 20 19 18 19 20 21 21 20 19 19 18 15 16 15 14 14 15 13 13 13 13 13 15
11 8 6 13 8 14 2 4 2 5 8 8 3 6 10 3 2 6 8 9 8 10 12 13 10 11 9 8 7 9 8 7 6 7 6 5 4 3 3 2 3 3 5 8 11 12 12 11 10 11 10 10 11 13 14 14 15 16 17 18 19 19 19 20 19 19 17 18 18 17 20 20 18 17 17 16 15 13 13 12 13 12 11 12 14 13 13
11 12 10 6 11 11 9 10 6 7 6 7 3 16 7 4 5 5 8 8 9 11 11 11 9 8 4 6 8 11 7 8 5 4 5 5 4 3 3 3 5 5 5 5 7 9 9 10 10 9 9 11 12 13 13 14 15 15 17 18 19 19 19 19 18 18 16 17 22 21 17 17 18 17 15 15 14 13 12 11 11 12 12 12 13 15 14
14 10 10 13 11 12 9 8 17 11 7 2 17 2 5 9 6 6 9 8 9 13 14 10 7 6 6 10 10 10 8 7 7 7 7 6 5 4 5 6 5 5 4 4 6 7 8 10 10 9 10 11 12 13 14 15 16 17 17 18 18 18 19 18 18 19 19 19 19 18 18 14 16 14 13 13 14 14 10 9 11 13 12 11 12 13 13
1 3 7 3 11 7 22 16 7 8 8 9 4 5 1 3 8 8 5 8 8 11 8 7 8 10 8 10 9 8 7 7 7 7 5 5 4 4 3 4 4 5 5 7 8 8 7 7 8 9 9 11 12 13 14 17 16 17 17 17 18 18 18 19 19 20 19 20 20 16 17 15 16 19 18 18 16 14 15 16 13 13 13 11 11 12 13
8 10 11 15 12 8 20 23 15 15 18 5 8 8 6 0 6 8 7 5 10 10 12 9 8 11 10 6 8 7 6 6 6 6 6 6 5 5 5 4 3 2 4 5 7 8 6 6 7 7 9 11 12 14 15 14 16 15 15 15 17 17 17 17 18 18 19 19 17 16 17 19 18 17 19 18 15 15 15 14 14 12 11 9 9 10 12
13 13 18 8 7 14 17 14 1 13 10 7 9 8 9 8 4 4 8 9 8 10 11 10 11 8 10 11 10 10 8 7 6 5 5 5 5 4 3 3 1 1 3 5 6 7 7 6 6 6 8 10 13 15 14 14 15 16 17 17 16 16 17 17 17 17 18 17 17 16 17 17 18 18 18 16 15 15 14 14 13 14 13 11 9 9 10
9 10 8 6 2 10 15 13 3 4 6 4 6 8 7 6 8 8 9 9 11 7 9 10 5 10 9 10 7 6 7 7 5 6 6 6 6 5 3 1 2 2 3 4 4 7 8 7 7 7 8 9 13 15 14 14 15 15 16 17 17 18 17 16 17 18 19 18 18 17 18 16 16 15 15 16 15 14 13 13 14 15 15 15 14 14 13
9 12 11 15 12 10 14 17 6 1 5 9 6 7 7 7 7 7 4 11 11 10 9 11 11 9 10 9 8 8 8 7 7 7 6 5 5 2 1 1 2 3 4 6 7 7 8 7 7 8 8 9 10 12 13 14 15 15 16 16 16 15 16 16 16 16 17 16 17 16 17 17 14 13 15 14 15 15 13 14 14 14 15 15 16 16 17
13 14 5 8 12 14 15 13 12 7 7 7 6 5 5 6 7 8 8 6 6 7 8 9 11 10 8 10 8 7 7 7 6 6 6 6 3 2 1 1 2 3 4 6 7 7 8 9 8 9 9 10 10 11 12 13 13 14 14 14 14 15 17 15 14 15 14 20 20 15 16 16 14 15 14 15 15 14 14 15 15 15 16 16 16 16 17
19 10 5 5 4 5 9 9 11 11 10 8 6 5 6 7 9 6 4 5 10 10 10 8 9 9 8 9 10 9 7 7 6 6 6 4 3 2 1 1 3 4 4 5 6 7 8 7 8 9 9 10 10 12 13 12 13 14 14 14 13 14 14 14 15 14 13 14 15 16 16 16 14 12 14 16 16 14 15 12 14 14 14 14 15 15 16
14 19 18 16 6 8 13 15 15 13 10 10 8 7 7 8 9 9 9 4 2 4 7 10 10 12 9 7 8 9 8 8 8 7 7 5 4 3 2 3 3 4 4 4 5 7 7 7 8 9 10 10 10 10 12 12 13 13 14 13 13 13 13 14 14 14 14 14 15 15 15 16 17 17 20 21 16 15 15 24 29 28 23 15 15 14 14
19 19 8 18 16 3 3 12 13 13 8 10 11 11 11 10 12 13 12 8 4 4 4 4 10 10 11 10 8 9 7 7 7 7 7 6 4 3 3 3 4 4 3 4 4 6 7 8 9 9 10 10 10 12 12 12 12 13 13 11 11 11 13 13 15 15 14 15 15 15 15 16 16 16 18 20 23 25 27 28 28 32 30 29 30 29 21
4 5 13 15 12 13 6 11 14 12 10 12 13 12 13 14 12 11 13 14 15 8 6 4 4 9 9 9 11 11 8 8 8 6 5 5 5 5 4 4 3 3 3 4 5 6 6 7 8 8 9 9 10 11 11 12 12 11 12 11 11 11 11 13 15 16 14 14 14 15 15 15 15 16 16 17 20 27 30 29 30 33 32 32 32 33 34
8 4 10 12 11 6 7 12 12 12 10 13 12 11 11 10 10 13 13 9 8 15 12 9 5 6 11 9 9 11 9 7 7 7 6 6 7 5 4 3 3 2 2 3 3 4 5 6 7 7 8 9 10 11 11 12 12 12 12 11 11 12 12 13 12 14 14 14 14 14 16 17 16 15 14 15 17 20 25 28 29 32 34 34 34 35 36
7 7 7 6 5 5 5 5 4 8 9 11 10 8 11 13 15 11 11 11 9 8 11 11 10 6 9 12 9 9 9 8 7 7 5 6 5 4 4 3 2 2 1 1 2 3 4 5 6 6 8 9 10 11 11 11 11 10 11 11 10 9 11 13 12 11 13 14 14 14 14 14 14 14 14 15 14 16 16 20 25 31 35 36 34 36 38
8 12 14 8 5 3 7 13 9 8 10 10 12 11 10 8 10 7 6 5 5 6 9 10 10 9 7 8 10 8 11 8 6 5 5 6 5 4 4 3 2 1 1 1 2 4 5 5 5 6 7 8 9 9 10 11 10 10 10 11 10 11 18 15 11 11 11 12 13 13 13 14 14 14 14 14 14 15 14 14 14 16 16 20 25 34 31
12 12 16 13 11 11 10 8 8 11 10 10 11 11 9 11 11 11 9 9 8 7 7 9 13 12 11 8 11 10 8 8 8 6 6 6 4 5 4 3 2 1 0 1 2 3 3 4 5 5 6 8 9 9 10 10 10 10 10 10 10 9 10 12 11 10 11 10 11 13 13 13 13 13 12 13 15 14 14 12 13 14 13 14 13 19 37
11 11 9 9 11 11 9 6 7 10 8 5 9 11 13 12 9 10 10 9 10 10 10 6 5 8 12 11 9 11 9 8 8 8 7 6 5 4 4 3 2 1 1 1 2 3 3 4 5 6 7 7 8 8 9 9 8 9 9 9 9 9 9 9 9 9 9 10 9 12 14 13 13 12 12 12 13 12 14 12 14 13 13 13 14 17 26
10 10 7 6 9 11 13 9 10 10 10 11 12 9 11 15 11 8 10 12 10 11 10 10 10 9 9 10 9 11 12 11 10 8 7 6 5 4 3 3 3 3 2 1 3 3 4 5 5 6 7 8 9 8 8 7 7 8 8 9 8 9 9 10 9 9 10 9 11 14 11 10 12 12 11 11 12 12 13 13 16 15 15 14 15 12 20
10 9 9 8 10 11 14 12 11 12 12 11 12 13 7 8 13 12 10 10 7 9 10 11 10 10 9 9 8 6 7 8 8 8 7 6 5 4 3 3 5 2 2 2 3 2 3 4 3 4 6 6 7 7 7 7 7 7 7 8 8 13 18 19 13 10 8 9 10 11 11 11 12 13 14 13 13 12 12 12 12 14 13 13 13 12 13
12 10 11 9 11 11 10 9 11 11 11 10 10 13 14 13 12 13 11 12 13 13 13 11 12 12 10 9 9 9 9 8 8 7 6 6 5 4 4 3 3 3 2 1 1 0 1 2 3 4 5 5 6 6 7 6 6 7 7 7 8 7 10 17 10 11 9 9 9 10 11 11 12 12 13 13 13 12 12 12 13 13 12 13 12 12 14
14 10 8 11 9 10 11 11 14 12 12 13 14 13 13 12 11 13 15 13 11 10 12 12 10 10 10 11 10 10 10 8 7 7 7 6 5 5 4 3 4 3 2 1 1 0 1 2 3 4 4 5 5 5 5 6 5 6 6 6 6 6 8 10 13 10 9 10 10 10 10 10 10 11 13 12 13 12 11 12 11 12 12 13 11 14 17
18 18 20 19 17 16 17 13 10 12 11 12 11 10 10 10 9 9 10 10 12 13 13 13 13 12 12 12 11 11 11 11 8 7 7 7 6 5 4 4 2 2 2 1 2 0 1 2 3 3 5 5 4 4 5 5 5 5 5 6 6 6 7 7 9 8 9 10 10 11 9 10 10 11 12 11 11 10 12 12 11 12 11 11 11 11 19
17 16 13 14 15 14 14 15 14 14 14 13 8 7 8 8 9 11 12 14 16 14 11 13 13 13 12 12 12 12 12 10 10 11 9 7 7 6 4 4 3 4 4 4 2 1 1 2 3 3 3 3 3 4 5 5 4 5 5 5 6 5 6 7 7 8 8 8 8 9 10 10 11 10 11 11 11 10 11 10 11 11 11 11 12 11 14
14 12 9 12 14 16 15 15 14 16 15 15 15 13 12 12 11 11 14 12 9 12 14 14 14 13 12 12 12 12 10 7 9 9 9 8 7 5 5 5 6 6 5 3 2 0 2 2 4 6 3 3 3 4 5 4 4 5 5 5 5 6 6 6 6 6 7 7 8 9 8 10 10 9 10 9 10 12 11 9 10 11 10 10 11 12 11
14 15 12 12 12 13 13 12 12 13 13 13 11 11 10 11 14 8 9 11 12 14 15 15 14 14 14 11 9 8 7 9 9 9 8 7 6 6 6 5 5 6 5 3 0 0 2 2 4 6 3 3 3 4 5 8 4 4 4 5 5 5 5 6 6 6 7 7 7 7 9 8 8 9 9 9 11 10 10 9 11 10 10 10 10 11 11
15 14 14 13 13 13 13 12 12 13 12 10 8 10 15 14 12 12 12 12 13 14 14 14 15 13 11 9 8 9 9 7 9 9 9 8 7 8 4 6 5 5 4 3 1 0 1 2 3 3 2 2 3 4 6 9 6 5 5 5 5 5 7 6 7 7 7 7 8 7 8 8 8 9 9 10 10 10 10 10 8 8 9 11 10 11 11
12 11 11 11 10 11 10 7 8 10 14 16 12 8 8 12 12 13 12 12 12 13 14 13 12 13 12 12 11 8 8 8 9 9 9 7 6 7 7 6 6 5 3 1 1 1 1 1 1 1 1 3 3 5 5 7 6 3 5 3 4 5 5 6 6 7 7 7 6 7 7 8 7 8 8 9 9 9 10 12 10 9 8 9 10 10 9
13 13 12 10 10 10 10 11 11 12 10 12 16 14 12 14 13 13 12 13 11 13 14 15 15 14 13 12 13 11 9 9 9 9 9 8 6 5 3 0 2 2 2 3 1 1 2 1 1 0 1 1 2 3 5 7 6 4 4 5 4 5 5 6 5 6 6 6 7 8 7 8 7 8 7 8 8 8 8 9 11 9 8 9 8 9 9
12 11 10 11 11 10 12 12 10 9 10 9 9 12 14 16 15 15 15 15 13 12 14 15 14 13 14 14 13 12 10 8 8 8 9 8 7 6 7 6 4 4 3 2 1 1 1 0 0 0 1 1 1 4 4 6 4 3 3 3 4 4 4 5 5 6 6 7 7 7 7 7 7 8 7 7 8 8 7 8 8 8 9 9 9 9 9
10 11 11 10 10 10 9 10 11 10 6 6 9 12 12 14 16 17 15 14 14 12 12 10 10 15 13 11 11 11 9 8 8 7 8 9 10 8 6 5 3 4 4 4 2 1 0 0 0 1 1 2 1 5 6 4 3 4 3 2 3 3 3 4 4 5 6 5 4 5 6 6 6 7 7 7 7 8 8 8 7 7 7 8 8 9 9
11 13 12 12 10 11 12 12 12 12 10 7 9 10 12 11 11 13 14 14 15 14 12 10 11 12 13 13 13 12 10 8 8 7 5 1 1 3 5 5 5 4 6 4 3 1 1 0 1 1 2 2 2 5 5 2 2 2 3 3 4 3 3 3 3 3 4 4 5 5 5 6 6 6 7 7 7 7 7 8 8 8 8 8 8 8 8
11 11 12 12 11 11 12 12 11 12 13 9 7 9 11 11 12 16 17 16 14 13 15 13 13 12 12 13 13 11 9 9 8 7 7 4 1 0 3 5 5 5 6 4 2 1 1 1 1 2 2 3 3 4 2 1 1 2 2 3 3 3 2 3 3 3 4 4 4 5 5 6 5 6 6 6 7 7 6 6 6 7 7 7 7 7 7
10 10 12 12 13 13 11 12 14 13 11 11 10 9 9 11 11 12 15 15 15 14 12 13 13 13 12 11 11 11 11 9 10 10 10 6 5 6 4 5 5 4 5 5 2 1 1 1 2 2 2 3 3 3 1 2 2 2 2 2 2 2 2 2 3 3 3 3 4 4 5 4 4 5 5 6 6 6 6 7 7 7 6 7 7 7 7
10 10 12 14 13 10 9 11 11 13 14 14 12 8 6 8 10 10 10 13 14 12 11 12 11 12 12 10 9 9 8 6 4 2 1 4 6 5 7 6 6 4 5 5 2 2 1 2 1 1 2 2 3 1 0 1 1 1 1 2 1 3 1 2 1 2 3 3 3 3 3 4 4 4 4 4 5 5 6 7 6 6 6 6 6 7 7
12 11 10 11 11 11 13 12 13 14 14 13 13 10 7 8 9 8 8 8 9 10 9 9 8 9 8 11 14 13 10 8 3 1 2 2 4 7 8 8 6 6 5 3 2 1 1 1 1 0 1 1 1 0 1 1 1 1 1 1 1 1 2 1 2 2 2 3 5 4 5 5 4 4 5 4 4 5 5 6 5 6 6 6 5 7 7
12 12 11 12 15 13 13 14 13 12 11 10 10 11 10 9 10 9 9 10 10 9 9 8 8 8 8 7 4 4 10 14 11 4 2 4 4 5 6 6 5 5 5 3 3 2 3 1 1 1 1 1 0 0 1 1 1 1 1 1 1 2 2 2 2 3 3 2 3 3 4 4 3 4 4 4 4 4 4 5 6 6 6 6 7 6 6
10 12 11 11 13 13 13 12 11 10 8 9 11 10 10 12 12 11 10 10 11 10 9 8 9 8 6 6 6 6 4 3 3 7 7 6 6 6 5 5 7 7 4 2 2 1 1 2 2 2 1 1 0 0 0 1 1 2 1 1 1 2 2 3 3 3 2 3 2 3 3 3 4 4 4 4 4 3 5 5 5 5 6 6 6 7 6
11 12 11 9 9 9 9 9 8 8 9 10 10 10 10 11 12 9 8 8 8 8 7 6 6 5 5 5 5 5 3 4 5 8 9 7 6 5 6 5 4 5 5 2 2 1 2 3 3 2 1 1 1 1 1 1 2 2 2 3 2 1 1 3 3 4 2 3 3 3 3 3 4 4 5 4 4 4 4 4 3 6 10 7 6 6 6
9 9 8 8 7 7 6 6 8 10 10 10 10 11 11 9 9 8 7 8 8 9 8 7 5 5 5 5 4 3 4 5 6 7 8 6 5 5 5 5 4 4 3 2 2 2 2 1 2 2 1 1 1 1 1 1 1 1 2 2 2 2 1 3 3 3 2 3 3 3 3 4 4 4 4 3 3 4 4 5 4 4 4 5 6 5 6
10 9 9 9 9 9 9 10 10 8 9 10 10 10 9 8 8 9 8 7 6 8 9 10 8 4 4 4 4 4 3 4 5 5 6 6 5 5 5 5 5 3 3 2 2 2 2 2 3 3 3 1 1 1 3 4 3 2 3 4 3 2 3 4 4 3 3 4 4 4 4 3 3 4 4 3 3 4 4 4 4 4 4 4 4 5 6
Wind_Direction
249 254 266 268 261 246 260 258 246 227 215 221 221 227 235 222 219 246 263 258 242 252 233 240 230 235 235 205 190 188 176 157 151 127 70 32 357 314 332 355 358 339 336 329 327 328 324 322 322 322 321 319 321 322 320 320 320 322 323 320 320 318 314 310 308 308 309 313 308 305 308 303 306 303 304 302 301 297 293 292 290 288 286 286 289 290 286
256 258 255 258 256 264 263 255 238 237 232 230 229 237 238 229 243 251 267 270 265 263 252 255 247 195 187 194 171 138 138 155 143 118 123 85 261 294 355 0 344 336 327 322 321 323 324 326 326 325 325 327 327 326 324 324 323 323 327 321 318 315 311 307 307 308 307 305 310 309 304 306 303 305 303 301 297 294 290 286 283 283 286 286 284 283 284
262 264 252 240 242 248 263 261 236 235 242 245 238 238 245 240 249 254 255 260 268 268 257 261 262 219 169 125 157 175 160 141 139 132 148 226 263 13 22 355 339 331 320 319 321 323 324 324 324 325 324 326 324 322 324 324 323 324 325 318 314 311 308 308 308 306 308 310 307 307 309 304 304 300 302 296 291 288 285 283 284 285 286 284 282 281 283
271 274 200 236 247 264 263 269 249 232 236 245 240 226 232 221 234 244 256 261 260 264 273 215 195 186 187 181 181 161 151 152 138 138 191 196 77 42 5 338 329 321 321 323 324 323 321 322 325 331 330 326 324 323 324 325 322 321 319 315 312 310 309 310 309 310 309 307 307 309 306 304 304 301 296 294 288 289 285 286 285 287 285 284 284 283 282
254 30 105 77 49 312 281 257 241 221 226 232 242 245 240 227 228 241 244 243 246 269 243 179 196 182 186 180 175 150 152 163 149 161 182 139 99 43 354 334 320 318 318 316 317 318 320 329 330 330 330 324 325 327 325 324 323 321 318 316 312 310 309 310 309 308 309 311 309 306 307 305 302 296 295 292 291 288 285 285 287 285 284 283 281 280 276
219 60 100 144 73 282 254 42 167 185 217 222 230 242 240 231 209 226 232 248 266 267 190 194 201 177 189 177 194 159 156 163 165 159 137 136 124 67 2 313 299 310 309 307 315 322 326 325 326 324 326 323 319 323 320 318 320 316 316 313 312 309 309 308 308 310 313 314 309 308 307 303 305 297 295 291 291 289 287 283 280 278 276 275 277 275 274
183 143 104 53 238 249 10 223 356 199 209 212 219 237 242 237 228 235 250 255 253 251 243 225 191 178 153 130 136 152 165 152 157 150 138 117 81 21 325 308 311 304 305 315 326 334 332 327 325 325 325 329 324 322 325 319 318 316 314 311 310 310 310 311 312 315 315 312 308 307 304 303 303 302 303 302 295 292 291 287 284 278 274 277 275 275 274
39 114 198 164 241 295 296 197 176 177 173 214 227 262 254 236 231 224 237 246 247 252 251 126 147 141 142 120 146 167 184 155 146 137 142 135 127 130 239 272 296 315 328 330 330 325 322 323 325 330 327 331 328 321 321 316 316 316 312 310 310 312 313 315 316 316 315 313 311 308 307 307 303 297 296 295 293 289 285 281 277 276 271 267 269 267 266
209 198 187 237 323 323 291 277 187 156 190 172 183 230 272 178 213 213 231 240 243 244 126 134 130 127 112 115 9 62 142 133 134 133 140 140 152 157 192 254 299 325 329 330 329 324 327 332 333 334 333 331 324 321 322 321 319 315 315 314 316 318 315 315 313 313 315 313 310 308 306 304 303 302 297 294 291 286 281 276 275 273 271 271 268 267 265
182 190 241 289 275 263 269 103 265 202 184 156 163 194 277 171 195 207 220 231 228 184 134 144 145 133 111 208 215 194 169 147 138 116 117 120 129 144 136 324 323 326 328 336 338 341 330 331 333 333 334 329 325 322 321 321 320 317 317 316 316 313 310 312 316 318 316 312 308 305 304 301 297 296 296 294 289 280 274 274 273 270 267 264 263 264 262
118 204 213 227 229 246 114 197 197 169 119 123 107 79 271 178 198 204 199 222 201 157 153 158 148 138 192 230 184 189 181 163 132 124 134 134 137 124 116 66 353 344 355 354 338 331 330 329 337 337 330 326 323 321 320 320 319 316 317 318 319 317 316 316 313 309 308 306 302 298 291 289 291 292 291 285 283 275 267 262 263 265 263 263 259 260 261
213 203 205 236 209 255 167 168 127 146 137 104 75 341 277 306 183 198 179 208 167 163 160 157 165 167 208 221 212 172 171 151 152 142 146 129 111 107 107 94 78 48 14 357 338 335 335 332 334 329 327 324 322 319 318 318 316 316 317 318 317 314 311 310 312 310 306 303 299 296 294 290 286 286 290 286 278 264 264 261 263 256 252 252 258 260 255
222 210 241 307 273 255 153 159 156 137 129 99 113 237 224 207 165 177 165 198 161 154 159 166 174 222 187 170 142 144 148 126 122 110 107 113 116 101 77 49 50 35 17 1 320 316 323 327 332 329 329 329 325 322 319 317 316 316 318 316 314 315 313 310 308 307 307 305 305 300 286 282 287 286 287 284 279 272 266 263 251 255 252 250 250 255 255
222 210 232 240 280 262 139 173 155 154 99 220 229 249 147 145 164 175 183 164 163 161 169 184 185 148 128 118 127 143 158 149 141 126 120 110 96 95 77 53 46 17 354 328 310 323 332 333 331 329 331 329 324 323 322 318 318 320 320 319 315 314 313 311 310 310 310 309 304 304 304 295 293 285 287 290 294 290 281 262 261 258 254 245 247 256 257
80 179 237 351 267 260 148 142 145 183 170 239 132 132 51 161 160 162 176 158 170 160 169 173 134 133 133 139 145 149 145 136 141 133 126 110 113 87 61 40 31 27 343 336 326 326 331 329 331 328 330 327 324 323 319 317 320 321 321 320 318 315 313 313 314 313 313 314 313 313 314 307 309 315 311 308 303 304 302 302 289 281 274 255 247 251 255
165 179 192 213 225 119 151 148 181 190 209 149 146 128 172 206 162 163 154 177 170 171 160 160 147 146 138 140 146 144 138 127 118 109 104 102 89 87 76 77 44 27 326 319 320 324 331 328 325 329 331 328 324 321 317 321 323 320 319 318 315 313 314 315 316 319 318 318 318 319 323 324 320 317 315 314 312 312 310 307 310 304 301 275 243 242 249
170 198 216 209 124 163 177 184 180 193 175 135 167 146 162 169 232 192 156 178 179 172 159 157 148 148 166 165 165 154 168 145 140 126 111 104 96 90 82 46 17 4 336 328 326 319 326 325 323 335 335 330 324 321 323 326 324 324 322 320 319 317 320 319 322 323 322 324 326 328 329 328 326 323 320 323 319 317 313 314 314 316 318 319 304 285 273
248 305 265 94 174 173 192 209 172 164 162 169 152 148 153 194 174 166 172 179 174 174 154 138 169 168 168 152 164 140 140 134 119 109 101 96 87 85 73 32 360 1 340 333 333 322 324 331 335 343 337 335 327 322 324 325 324 323 320 321 323 324 324 325 327 328 328 330 334 335 335 334 331 324 321 324 322 318 326 329 334 332 327 321 316 313 303
108 252 216 198 198 184 193 201 195 140 175 185 170 163 169 179 166 181 178 168 173 167 153 160 170 173 162 158 158 145 137 136 138 132 126 115 107 104 66 3 17 354 4 348 339 329 325 335 341 341 335 332 324 321 324 323 324 323 321 322 323 324 327 329 330 334 336 336 336 337 339 339 331 328 326 326 325 326 331 337 335 331 325 327 327 324 320
193 243 133 211 177 193 195 194 195 195 195 194 192 178 171 163 173 173 175 149 146 139 160 169 163 169 168 155 160 154 154 146 142 138 133 130 121 104 103 46 45 23 8 347 330 329 331 337 343 339 335 331 329 326 323 325 322 322 323 327 328 327 330 333 334 336 337 337 340 339 344 342 333 336 331 331 331 332 335 337 336 336 335 334 332 328 322
235 268 250 131 150 216 215 206 209 196 192 181 175 154 140 140 141 126 119 167 164 166 172 156 153 153 181 167 161 156 143 141 145 146 135 126 125 125 97 52 52 37 6 339 329 329 330 336 339 338 335 330 331 330 329 326 327 327 326 326 328 330 335 339 340 340 340 340 341 340 340 339 333 336 333 334 334 332 336 333 337 339 332 334 332 331 321
223 222 213 139 158 220 208 202 200 202 194 166 148 130 135 149 143 148 145 105 100 151 155 159 161 166 168 159 150 154 155 155 146 136 129 126 125 132 103 89 62 43 6 335 328 330 330 341 341 339 333 332 332 329 329 329 330 331 331 330 334 341 342 343 342 343 346 345 346 342 342 340 339 334 339 345 343 341 339 342 348 352 352 346 347 344 333
221 226 172 182 208 229 176 182 195 198 181 148 151 166 168 176 167 161 146 135 131 153 172 168 159 159 162 164 147 140 144 144 137 131 130 130 131 121 105 75 42 33 358 344 332 337 339 344 342 337 332 332 333 333 333 331 332 332 331 334 337 341 347 348 344 345 342 345 344 337 342 343 336 339 336 334 343 349 348 349 353 356 356 356 360 2 357
1 133 163 181 190 202 176 176 186 188 176 164 178 183 175 171 166 167 163 166 165 177 157 158 164 155 152 153 150 142 130 127 126 125 123 123 120 113 94 81 66 28 3 354 347 337 339 341 337 331 329 330 334 331 332 332 334 333 336 339 341 341 343 343 347 349 345 343 340 340 346 343 339 343 340 342 334 341 352 354 356 360 1 1 4 5 1
211 173 162 180 186 178 156 174 182 184 178 175 181 182 174 165 172 169 171 180 177 160 163 167 150 151 146 148 143 143 140 135 134 136 135 132 116 105 100 94 76 55 17 342 329 327 335 337 332 330 328 329 333 332 333 334 335 335 339 342 341 341 344 346 348 346 348 348 344 345 346 343 343 342 341 347 345 337 336 345 355 3 5 2 6 8 3
133 147 136 134 137 135 124 103 176 187 184 179 173 176 172 169 170 173 182 172 167 166 157 153 148 151 143 140 132 124 120 131 139 131 125 117 110 105 103 96 89 60 24 333 324 335 340 339 330 329 330 332 336 333 334 333 334 333 338 340 341 341 349 350 352 353 354 350 346 347 344 343 340 340 343 347 343 336 341 342 348 353 357 358 1 7 5
129 140 115 85 115 163 180 166 199 190 177 174 170 166 163 151 150 136 95 88 114 136 147 150 140 131 114 117 121 126 135 138 126 130 129 122 120 120 115 103 91 71 39 332 357 352 349 340 331 332 327 334 334 332 332 334 333 337 343 344 344 343 354 1 358 356 356 357 350 348 348 346 341 339 343 344 343 347 346 344 342 345 329 344 352 9 10
155 162 152 167 181 179 200 207 166 156 157 152 139 130 126 120 121 122 120 115 110 106 109 131 138 136 129 135 132 130 126 136 144 143 134 131 125 118 112 106 96 93 112 83 27 352 348 335 332 333 334 336 332 332 334 336 336 342 346 348 348 348 349 356 2 358 356 354 353 357 354 341 342 334 342 346 352 349 346 339 345 341 332 344 335 352 10
166 170 177 176 171 173 159 112 111 131 113 86 112 120 127 127 142 144 152 147 138 133 130 131 127 138 140 145 143 143 147 149 148 151 144 136 128 122 119 119 111 128 138 96 33 360 350 346 344 343 337 333 332 334 337 338 340 344 346 348 348 347 350 355 358 357 354 352 351 0 359 353 348 337 345 349 349 349 349 349 348 339 334 317 342 352 10
163 170 158 141 139 131 131 149 155 148 142 143 138 152 157 142 147 170 156 147 155 155 155 138 138 141 147 145 154 154 158 162 154 143 140 135 129 126 124 120 115 132 132 94 28 4 5 349 341 341 333 330 330 332 338 339 339 341 344 348 350 349 349 354 354 357 356 353 353 356 358 357 358 348 344 352 350 351 350 352 357 351 349 343 353 353 10
167 167 155 136 144 156 163 166 157 162 157 161 156 150 165 165 162 159 166 155 157 149 155 158 153 144 154 157 147 137 128 131 135 140 138 135 130 126 121 123 116 110 78 7 335 353 347 326 317 324 318 320 321 332 339 341 343 340 349 353 353 351 357 4 6 3 353 356 355 360 360 2 2 357 354 354 350 352 350 347 345 355 349 349 350 348 6
163 155 154 159 164 173 172 158 158 165 165 159 152 169 171 166 174 175 164 174 183 164 154 152 159 164 155 140 135 133 133 133 136 138 135 131 129 125 126 115 110 121 156 218 249 275 309 298 322 315 314 320 324 335 340 344 345 352 354 347 345 344 347 5 5 3 0 0 359 2 1 2 0 359 0 358 351 346 346 351 353 352 350 355 350 356 358
154 154 168 180 181 176 171 177 165 173 164 174 188 183 181 188 174 169 177 168 145 154 161 164 157 146 144 141 137 137 137 136 136 139 141 140 137 132 131 134 140 152 176 200 195 161 283 301 302 305 317 324 331 336 341 341 348 348 342 345 339 338 351 359 5 4 359 6 7 4 1 3 1 1 5 359 351 348 350 354 353 353 353 355 350 355 3
175 185 193 188 176 180 181 181 176 167 185 190 187 179 179 181 173 162 154 157 158 158 166 163 153 148 146 145 145 142 142 136 145 164 166 153 144 138 141 130 146 165 191 166 134 59 287 292 286 309 323 327 330 338 338 344 352 346 343 344 345 350 353 354 356 1 5 7 3 359 360 1 4 3 0 360 356 354 354 353 353 354 351 351 343 344 353
186 194 180 170 180 180 171 170 180 182 177 184 189 185 179 168 164 166 159 159 169 171 152 140 144 148 147 146 149 156 165 167 162 157 158 153 146 146 143 111 96 111 117 133 132 5 291 287 283 312 328 321 337 336 339 346 357 350 345 347 345 352 349 353 1 5 5 356 355 0 5 6 4 359 359 0 5 359 355 354 356 354 352 349 345 348 355
187 187 173 175 183 183 182 181 179 177 176 183 184 175 170 177 165 155 165 167 139 132 139 142 143 144 149 156 159 167 171 161 149 146 146 144 144 140 132 124 124 123 134 158 162 89 311 292 331 1 343 340 341 336 340 351 353 1 347 351 348 351 354 359 359 0 3 359 3 1 4 0 358 356 359 0 4 6 0 350 352 354 349 346 342 345 339
188 184 180 177 181 182 182 176 173 172 179 180 171 167 169 170 174 158 135 132 141 143 143 142 144 155 165 168 157 151 145 150 146 146 142 138 137 136 138 132 128 141 141 135 222 73 309 298 350 1 350 348 333 333 335 353 1 9 356 357 353 360 1 3 4 6 4 360 1 355 353 358 7 6 3 4 2 357 353 352 354 350 352 346 345 344 343
189 185 180 179 179 181 184 180 171 170 168 164 168 174 172 163 155 147 146 142 144 145 146 151 154 149 140 131 137 146 147 143 138 134 136 141 148 136 140 134 143 151 139 183 193 218 266 299 4 349 346 352 334 326 330 350 12 16 17 4 1 357 5 7 3 4 4 359 356 358 358 0 0 4 4 4 3 2 358 356 347 346 351 350 350 351 351
182 183 185 180 171 174 167 147 149 161 163 168 167 149 147 145 139 134 138 142 142 142 140 139 134 135 142 144 145 146 148 147 142 137 138 140 146 140 163 172 173 179 185 210 173 219 261 273 358 345 10 350 330 329 327 337 1 26 21 18 7 8 5 5 5 359 359 354 355 0 359 359 360 4 1 1 357 358 2 1 358 349 350 349 354 349 351
177 180 181 160 161 158 150 158 163 168 175 163 153 153 149 140 143 138 135 136 148 150 144 142 145 147 153 153 150 154 158 151 147 143 143 141 132 121 106 52 219 225 211 162 147 192 246 315 19 281 27 346 332 333 324 334 353 5 27 28 14 12 7 4 0 2 357 358 359 358 358 358 356 358 357 355 360 358 352 352 2 349 352 345 346 350 353
177 172 165 162 160 155 157 153 159 160 153 155 149 144 151 147 143 140 150 150 152 151 151 154 149 149 158 158 155 147 145 145 145 145 138 126 126 147 151 199 193 164 188 154 165 200 240 229 253 64 56 5 332 349 332 323 340 359 15 27 17 14 11 9 8 2 357 354 355 356 352 349 350 353 354 356 359 358 354 355 348 351 354 347 346 351 351
175 162 160 154 151 153 145 136 128 121 113 122 131 139 143 147 151 153 147 140 143 148 149 156 154 150 145 135 131 130 133 140 142 145 156 158 160 157 159 211 170 179 176 149 148 153 230 266 84 62 64 359 346 341 338 322 338 358 13 11 11 7 15 13 8 356 348 345 342 342 344 348 350 349 349 353 355 358 355 353 343 351 351 347 350 347 348
158 157 160 151 145 141 141 145 145 136 123 115 129 135 134 130 120 121 131 139 142 145 144 135 128 128 130 135 135 136 141 144 145 146 143 146 136 163 159 169 156 178 162 146 153 170 208 239 163 130 39 18 351 341 333 322 328 5 11 10 2 359 6 10 5 352 347 346 347 347 348 349 353 348 351 350 350 351 353 355 355 347 344 342 342 347 349
153 149 145 143 143 142 137 128 123 125 125 121 116 121 126 127 137 141 144 145 146 149 145 142 142 142 142 142 139 140 147 154 152 153 143 141 92 220 149 143 161 168 158 143 150 180 204 197 170 82 51 20 355 348 333 331 338 352 2 10 358 352 346 359 357 0 355 354 344 342 343 343 347 343 343 342 345 348 346 345 350 346 338 342 338 337 345
139 139 139 137 138 137 138 142 142 138 125 118 112 111 120 129 134 141 143 145 148 146 146 145 147 146 149 152 153 157 158 158 155 151 141 147 170 217 184 160 158 168 161 151 156 169 189 200 133 72 43 16 7 356 1 341 340 346 349 352 349 344 341 353 357 352 348 344 336 338 337 337 341 336 333 334 340 340 343 342 342 343 339 338 339 342 348
106 112 121 125 129 129 125 116 109 112 118 115 103 88 99 122 130 132 141 143 144 148 149 149 145 148 147 137 118 115 112 117 134 122 74 140 161 175 148 153 166 162 166 161 151 178 188 195 129 40 29 19 9 17 333 320 325 321 325 328 330 336 341 355 348 336 333 329 324 324 325 321 330 327 329 326 328 333 332 334 334 337 342 336 337 338 336
118 116 118 115 107 109 113 113 116 117 119 123 127 133 128 124 123 125 122 121 123 123 128 129 116 131 137 141 143 137 134 122 108 87 94 84 96 117 131 143 157 162 165 157 171 171 183 195 208 240 44 16 15 14 280 300 281 295 296 312 306 326 327 320 326 320 311 308 316 326 328 327 321 322 323 328 329 332 333 335 338 339 331 330 330 338 338
119 116 118 120 120 120 117 122 126 133 139 139 134 127 129 122 114 110 111 113 114 114 113 114 116 121 127 129 113 124 147 146 146 190 163 128 115 118 137 156 156 157 159 173 187 201 200 209 216 289 253 79 98 270 265 273 273 277 269 270 294 306 300 311 316 308 310 309 315 315 313 314 318 323 318 320 322 325 322 331 330 330 333 339 339 337 333
104 111 112 113 119 126 129 131 129 128 122 122 123 127 127 122 116 117 118 119 118 116 114 117 120 117 103 92 106 113 83 26 110 162 160 148 148 150 148 146 149 156 156 156 176 204 198 253 243 244 244 164 156 233 239 260 264 268 265 268 265 261 272 283 275 271 288 294 295 297 295 296 302 306 311 315 316 315 323 325 323 323 329 333 330 330 329
110 111 111 120 126 131 135 132 126 123 124 128 128 131 135 132 126 132 132 131 122 110 95 98 110 112 105 103 90 59 68 78 82 107 127 137 141 139 140 140 144 154 153 159 176 214 235 243 253 253 199 171 206 230 245 257 255 256 264 265 263 251 257 274 294 304 295 294 292 286 291 291 289 293 300 305 302 309 315 310 309 320 328 328 321 324 329
113 108 110 107 102 95 79 88 113 124 129 128 130 135 141 135 126 119 130 131 129 124 119 115 110 116 119 110 90 86 87 89 101 111 121 133 136 136 134 141 147 153 159 160 186 207 207 228 218 220 202 202 232 259 257 260 259 269 269 269 271 266 261 271 274 276 278 276 272 276 276 280 282 285 280 281 296 304 304 309 313 317 316 315 318 318 317
95 100 101 102 96 91 93 99 104 110 117 127 136 141 135 124 115 118 120 136 134 130 140 134 131 138 128 113 111 108 108 99 101 110 123 126 136 135 140 138 146 160 165 179 205 218 225 217 227 226 215 217 219 253 271 277 277 269 265 265 268 264 267 266 259 265 267 271 274 277 275 268 266 271 277 275 277 285 293 296 299 299 293 299 303 310 309